Humidity-temperature Sensor

Selected Measurement Type: Air Temperature

 
Air Temperature [°C]     6 entries per hour
Showing data from 2/27/2016 (00:00:00 Z) to 2/24/2016 (00:01:00 Z)
Previous Next [ Day | 3-Days | 7-Days ]
First Last
Prev [ Day | 3-Days | 7-Days ] Next
First Last

Start Time:     :
End Time:     :     
Time (in GMT) :00 :50 :40 :30 :20 :10
Previous Next [ Day | 3-Days | 7-Days ]
First Last
Prev [ Day | 3-Days | 7-Days ] Next
First Last


123 => good data
MM => data is determined as missing
-- => data not received/configured
Back to Top Back to Top
2/27/2016 00:00 to 23:10 28.69 28.67 28.67 28.61 28.69 28.63
2/26/2016 23:00 to 22:10 28.57 28.64 28.67 28.55 28.53 28.43
2/26/2016 22:00 to 21:10 28.66 28.67 28.64 28.72 28.67 28.53
2/26/2016 21:00 to 20:10 28.61 28.57 28.62 28.55 28.60 28.62
2/26/2016 20:00 to 19:10 28.67 28.55 28.42 28.47 28.72 28.55
2/26/2016 19:00 to 18:10 28.61 28.72 28.67 28.72 28.57 28.65
2/26/2016 18:00 to 17:10 28.71 28.62 28.64 28.55 28.56 28.69
2/26/2016 17:00 to 16:10 28.56 28.81 28.77 28.72 28.52 28.36
2/26/2016 16:00 to 15:10 28.32 28.62 28.60 28.62 28.53 28.07
2/26/2016 15:00 to 14:10 28.06 27.91 27.88 28.15 28.11 27.96
2/26/2016 14:00 to 13:10 27.91 28.03 27.88 28.01 27.85 27.97
2/26/2016 13:00 to 12:10 27.96 27.92 27.90 28.02 28.02 27.91
2/26/2016 12:00 to 11:10 27.84 27.92 27.71 27.76 27.83 27.76
2/26/2016 11:00 to 10:10 27.72 27.68 27.77 27.70 27.70 27.77
2/26/2016 10:00 to 9:10 27.87 27.76 27.69 27.75 27.79 27.79
2/26/2016 09:00 to 8:10 27.85 27.98 28.06 28.02 28.07 28.10
2/26/2016 08:00 to 7:10 28.17 28.09 28.06 27.89 27.80 27.57
2/26/2016 07:00 to 6:10 27.38 27.42 27.24 27.21 27.11 27.30
2/26/2016 06:00 to 5:10 27.10 26.95 27.06 26.71 26.78 26.64
2/26/2016 05:00 to 4:10 26.61 26.76 28.23 28.28 28.19 28.27
2/26/2016 04:00 to 3:10 28.26 28.08 28.13 28.03 28.10 28.06
2/26/2016 03:00 to 2:10 28.01 28.09 28.03 28.08 28.02 28.13
2/26/2016 02:00 to 1:10 28.02 28.10 28.04 28.15 28.11 28.09
2/26/2016 01:00 to 0:10 28.11 28.11 28.51 28.39 28.34 28.31
2/26/2016 00:00 to 23:10 28.40 28.25 28.33 28.29 28.30 27.98
2/25/2016 23:00 to 22:10 28.11 28.42 28.39 28.33 28.05 28.35
2/25/2016 22:00 to 21:10 28.20 28.37 28.39 28.39 28.29 28.36
2/25/2016 21:00 to 20:10 28.46 28.45 28.41 28.39 28.39 28.47
2/25/2016 20:00 to 19:10 28.47 28.35 28.15 28.38 28.49 28.32
2/25/2016 19:00 to 18:10 28.42 28.23 28.15 28.20 28.18 27.90
2/25/2016 18:00 to 17:10 27.87 27.90 27.97 28.04 27.99 28.12
2/25/2016 17:00 to 16:10 27.96 27.79 27.83 28.09 28.00 27.95
2/25/2016 16:00 to 15:10 28.07 27.75 27.58 27.58 27.37 26.86
2/25/2016 15:00 to 14:10 27.17 27.06 27.16 26.97 26.77 26.83
2/25/2016 14:00 to 13:10 26.84 27.05 27.49 28.22 28.33 28.24
2/25/2016 13:00 to 12:10 28.22 28.06 27.67 27.40 27.87 28.25
2/25/2016 12:00 to 11:10 28.26 28.28 28.07 28.28 28.18 28.03
2/25/2016 11:00 to 10:10 28.24 28.20 28.23 28.25 28.31 28.29
2/25/2016 10:00 to 9:10 28.25 28.27 28.37 28.35 28.43 28.35
2/25/2016 09:00 to 8:10 28.34 28.36 28.49 28.48 28.37 28.49
2/25/2016 08:00 to 7:10 28.47 28.48 28.50 28.52 28.44 28.56
2/25/2016 07:00 to 6:10 28.45 28.38 28.35 28.42 28.21 28.15
2/25/2016 06:00 to 5:10 28.40 28.47 28.25 28.16 28.19 28.36
2/25/2016 05:00 to 4:10 28.23 28.31 28.25 28.22 27.96 28.31
2/25/2016 04:00 to 3:10 28.72 28.65 28.56 28.62 28.47 28.67
2/25/2016 03:00 to 2:10 28.66 28.65 28.64 28.67 28.71 28.81
2/25/2016 02:00 to 1:10 28.70 28.63 28.70 28.63 28.64 28.53
2/25/2016 01:00 to 0:10 28.40 28.71 28.68 28.68 28.74 28.72
2/25/2016 00:00 to 23:10 28.68 28.76 28.64 28.64 28.67 28.60
2/24/2016 23:00 to 22:10 28.48 28.48 28.55 28.71 28.66 28.55
2/24/2016 22:00 to 21:10 28.48 28.53 28.64 28.68 28.60 28.42
2/24/2016 21:00 to 20:10 28.30 28.25 28.21 28.45 28.52 28.36
2/24/2016 20:00 to 19:10 28.37 28.36 28.22 28.01 27.75 27.21
2/24/2016 19:00 to 18:10 26.60 26.90 27.10 28.11 27.70 27.45
2/24/2016 18:00 to 17:10 27.30 27.36 27.09 27.02 26.66 27.37
2/24/2016 17:00 to 16:10 28.05 27.72 26.98 26.90 27.44 27.87
2/24/2016 16:00 to 15:10 27.49 27.37 27.37 27.36 27.18 27.54
2/24/2016 15:00 to 14:10 28.05 28.02 28.01 28.14 28.02 28.00
2/24/2016 14:00 to 13:10 27.97 27.86 27.77 27.76 27.94 27.89
2/24/2016 13:00 to 12:10 27.94 27.93 27.87 27.75 27.89 27.72
2/24/2016 12:00 to 11:10 27.83 27.89 27.75 27.81 27.88 27.76
2/24/2016 11:00 to 10:10 27.84 27.68 27.83 27.86 27.93 27.84
2/24/2016 10:00 to 9:10 27.79 27.72 27.87 27.91 28.04 28.01
2/24/2016 09:00 to 8:10 28.04 27.98 27.96 28.07 27.84 27.88
2/24/2016 08:00 to 7:10 28.11 27.96 28.02 28.09 28.17 28.08
2/24/2016 07:00 to 6:10 28.19 28.09 28.24 28.02 28.42 28.44
2/24/2016 06:00 to 5:10 28.47 28.44 28.43 28.48 28.50 28.43
2/24/2016 05:00 to 4:10 28.47 28.53 28.50 28.48 28.37 28.54
2/24/2016 04:00 to 3:10 28.50 28.60 28.41 28.50 28.55 28.52
2/24/2016 03:00 to 2:10 28.45 28.58 28.54 28.48 28.52 28.54
2/24/2016 02:00 to 1:10 28.49 28.63 28.68 28.83 28.79 28.74
2/24/2016 01:00 to 0:10 28.46 28.13 28.37 28.42 28.41 28.38